Regional Weather Roundup
Issued by NWS Goodland, KS

Home | Current Version | Previous Version | Graphics & Text | Print | Product List | Glossary Off
Versions: 1 2 3 4 5 6 7 8 9 10 11 12 13 14 15 16 17 18 19 20 21 22 23 24 25 26 27 28 29 30 31 32 33 34 35 36 37 38 39 40 41 42 43 44 45 46 47 48 49 50

000
ASUS43 KGLD 291659
RWRGLD

GOODLAND FORECAST AREA HOURLY WEATHER ROUNDUP
NATIONAL WEATHER SERVICE GOODLAND KS
1100 AM MDT TUE JUL 29 2014

...OFFICIAL OBSERVATIONS...

CITY           SKY/WX    TMP DP  RH WIND       PRES   REMARKS
GOODLAND KS    PTSUNNY   79  63  57 S14G21    30.21F
HILL CITY KS   SUNNY     82  58  43 S10G20    30.20
IMPERIAL NEB   CLOUDY    73  58  59 SE12      30.23F
MCCOOK NEB     SUNNY     78  58  49 E9        30.21F
AKRON CO       SUNNY     79  58  48 SE12G18   30.23F
BURLINGTON CO  SUNNY     77  63  61 SE13      30.23S
LIMON CO       MOSUNNY   77  58  51 VRB7      30.26F
$$

...UNOFFICIAL OBSERVATIONS...

CITY           SKY/WX    TMP DP  RH WIND       PRES   REMARKS
COLBY KS       PTSUNNY   81  64  57 SE7       30.21S
GOVE KS          N/A     80  32  17 MISG        N/A
NORTON KS      SUNNY     79  52  38 NE9       30.21S
WAKEENEY KS      N/A     81  53  37 MISG        N/A
YUMA CO          N/A     77  62  60 SE8         N/A
$$


USA.gov is the U.S. government's official web portal to all federal, state and local government web resources and services.